Weather Roundup
Issued by NWS Corpus Christi, TX

Home | Current Version | Previous Version | Text Only | Print | Product List | Glossary On
Versions: 1 2 3 4 5 6 7 8 9 10 11 12 13 14 15 16 17 18 19 20 21 22 23 24 25 26 27 28 29 30 31 32 33 34 35 36 37 38 39 40 41 42 43 44 45 46 47 48 49 50
000
ASUS44 KCRP 060410
HRRCRP

SOUTH TEXAS REGIONAL WEATHER ROUNDUP
NATIONAL WEATHER SERVICE CORPUS CHRISTI TX
1000 PM CST MON DEC 05 2016


TXZ229>244-060500-
...CORPUS CHRISTI AREA OBSERVATIONS...

CITY           SKY/WX    TMP DP  RH WIND       PRES   REMARKS
CORPUS CHRISTI CLEAR     51  50  96 S5        29.84S
NAS CORPUS CHR CLEAR     54  52  93 S5        29.84S
ROCKPORT         N/A    N/A N/A N/A MISG      29.83S
KINGSVILLE NAS CLEAR     51  51 100 S6        29.85
ALICE          CLEAR     51  50  96 S5        29.84S
ORANGE GROVE   CLEAR     51  51 100 SW5       29.85S
FALFURRIAS     CLEAR     54  50  89 S5        29.85S
$$

...VICTORIA AREA OBSERVATIONS...

CITY           SKY/WX    TMP DP  RH WIND       PRES   REMARKS
VICTORIA       CLEAR     48  48 100 SW5       29.82S
BEEVILLE       FAIR      51  51 100 SW5       29.82S
PLEASANTON     CLEAR     48  46  91 CALM      29.83R
SAN ANTONIO    PTCLDY    48  46  93 NW3       29.81R
$$

...LAREDO AREA OBSERVATIONS...

CITY           SKY/WX    TMP DP  RH WIND       PRES   REMARKS
LAREDO         CLEAR     54  50  86 S7        29.85S
COTULLA        CLEAR     53  48  83 CALM      29.82S
DEL RIO        CLEAR     46  45  96 E3        29.80R
MCALLEN        CLEAR     56  52  86 CALM      29.89R FOG
HEBBRONVILLE   CLEAR     52  48  88 SW6       29.86S
$$

...OTHER TEXAS OBSERVATIONS...

CITY           SKY/WX    TMP DP  RH WIND       PRES   REMARKS
BROWNSVILLE    CLEAR     52  51  97 CALM      29.88S
HOUSTON        MOCLDY    52  50  93 W6        29.79S
COL. STATION   CLOUDY    50  50 100 SW6       29.78R
AUSTIN         PTCLDY    46  46 100 CALM      29.78S
WACO           CLOUDY    50  50 100 SW5       29.76R
FORT WORTH     CLOUDY    51  47  86 S8        29.72S
WICHITA FALLS  CLEAR     40  39  97 SE7       29.67F
LUBBOCK        CLEAR     49  32  52 W15       29.66R
EL PASO        CLEAR     57  22  25 NW10      29.91R
$$

...MARINE OBSERVATIONS...

STATION/POSITION TIME  SKY/WX   TEMP    WIND        PRES    VSBY  WAVE   SWELL
                                AIR SEA DIR/SP/G                  HT/PER HT/PER
                 (UTC)          (F)     (DEG/KT/KT) (MB)    (MI)  (FT/S) (FT/S)
PORT ARANSAS     0400            59 64  220/  6/  7 1010.2R
BUOY 90 E PORT A 0350            63 77  290/ 16/ 21 1009.6R         5/ 6
BUOY 45 SE BAFFI 0350            65 76  260/ 10/ 12 1010.2S         4/ 8   3/ 8
BUOY 200 E PT IS 0350            73 80  300/ 19/ 21 1010.2R         6/ 6
BUOY 15 E GALVES 0350            56 67  270/ 19/ 23 1008.6R         4/ 5
$$



USA.gov is the U.S. government's official web portal to all federal, state and local government web resources and services.